Regional Weather Roundup
Issued by NWS

Home | Current Version | Previous Version | Text Only | Print | Product List | Glossary On
Versions: 1 2 3 4 5 6 7 8 9 10 11 12 13 14 15 16 17 18 19 20 21 22 23 24 25 26 27 28 29 30 31 32 33 34 35 36 37 38 39 40 41 42 43 44 45 46 47 48 49 50
000
ASUS42 KFFC 171010
RWRGA
WEATHER ROUNDUP FOR GEORGIA
NATIONAL WEATHER SERVICE PEACHTREE CITY GA
600 AM EDT THU AUG 17 2017

NOTE: "FAIR" INDICATES FEW OR NO CLOUDS BELOW 12,000 FEET WITH NO
SIGNIFICANT WEATHER AND/OR OBSTRUCTIONS TO VISIBILITY.

* = USE WITH CAUTION. THE STATIONS MARKED WITH AN ASTERISK MAY NOT
REPORT WEATHER SUCH AS PRECIPITATION, FOG, OR THUNDER AND ARE NOT
QUALITY CONTROLLED BY NWS.

THE REMARK "TC" DENOTES TEMPERATURE READING IN DEGREES CELSIUS.

GAZ001>058-171100-
NORTH GEORGIA

CITY           SKY/WX    TMP DP  RH WIND       PRES   REMARKS
ATLANTA        CLEAR     77  73  87 W5        30.06R
ATHENS         CLEAR     73  73 100 CALM      30.04R
PEACHTREE CITY CLEAR     75  74  96 CALM      30.06R
ROME           PTCLDY    74  74 100 N3        30.04R
WEST ATLANTA   CLEAR     76  76 100 SW3       30.05R
GAINESVILLE    CLEAR     75  74  96 W3        30.08R
CARTERSVILLE   CLEAR     73  73 100 CALM      30.06R


CITY           SKY/WX    TMP DP  RH WIND       PRES   REMARKS
MARIETTA       CLEAR     75  72  90 W6        30.06R
KENNESAW*      CLEAR     76  73  91 W6        30.07R
CANTON*        CLEAR     73  73 100 CALM      30.08R
$$

GAZ059>098-102>109-171100-
CENTRAL GEORGIA

CITY           SKY/WX    TMP DP  RH WIND       PRES   REMARKS
AUGUSTA-BUSH   CLEAR     77  75  93 CALM      30.00R
AUGUSTA-DANIEL CLEAR     82  72  71 CALM      30.02R
COLUMBUS       CLEAR     78  74  87 NW6       30.05R
MACON          NOT AVBL
ROBINS AFB     CLEAR     76  74  96 CALM      30.03R


CITY           SKY/WX    TMP DP  RH WIND       PRES   REMARKS
LAGRANGE*      CLEAR     76  75  98 CALM      30.07R
SYLVANIA*      CLEAR     76  76 100 CALM      30.03R
MILLEDGEVILLE* CLEAR     77  75  94 CALM      30.04R
$$

GAZ099>101-110>166-171100-
SOUTH GEORGIA

CITY           SKY/WX    TMP DP  RH WIND       PRES   REMARKS
SAVANNAH       PTCLDY    80  77  90 SW3       30.02R
VALDOSTA       CLEAR     74  74 100 CALM      30.05R FOG
ALMA           CLEAR     76  74  93 CALM      30.03R
ST SIMONS      CLEAR     81  77  88 W3        30.02R
FT STEWART     CLEAR     77  75  93 CALM      30.00R
ALBANY         CLEAR     77  76  96 W3        30.06R
HUNTER AFB     CLEAR     79  76  92 CALM      29.99R
MOODY AFB      CLEAR     78  75  89 CALM      30.03R
BRUNSWICK      CLEAR     79  73  83 CALM      30.03R


CITY           SKY/WX    TMP DP  RH WIND       PRES   REMARKS
BAINBRIDGE*    CLEAR     77  77 100 CALM      30.05R
MOULTRIE*      CLEAR     77  75  94 CALM      30.06R
VIDALIA*       CLEAR     77  75  94 CALM      30.04R
WAYCROSS*      CLEAR     76  73  91 CALM      30.03S
DOUGLAS*         N/A     75  73  94 CALM      30.05R
$$




USA.gov is the U.S. government's official web portal to all federal, state and local government web resources and services.